Latest  Newer  Older  Last 2 hours slideshow  Last 24 hours slideshow  Refresh every 5 minutes 
Current image  Latest image  Rain/snow radar  Cloud coverage sat images 

All time is UTC (add 2 hours to UTC in wintertime, 3 hours to UTC in DST for Latvia local time)

2022/12/09 09:20 EVRA 090920Z 20003KT 180V280 CAVOK M05/M06 Q1009 NOSIG
2022/12/09 09:20 EVLA 090920Z AUTO 07001KT CAVOK M09/M10 Q1009
2022/12/09 09:20 EVVA 090920Z AUTO 00000KT 1200 PRFG NSC M07/M07 Q1008
2022/12/09 09:20 EYKA 090920Z VRB01KT 9000 OVC014 00/M01 Q1009
2022/12/09 09:20 EYPA 090920Z 16004KT CAVOK M06/M07 Q1010
2022/12/09 09:20 EYSA 090920Z VRB02KT 1500 BR NSC M06/M06 Q1009 TEMPO 5000
2022/12/09 09:20 EYVI 090920Z 20007KT 0900 R19/1100N +SN OVC002 M01/M01 Q1009 NOSIG
2022/12/09 08:20 EEKA 090820Z 00000KT CAVOK M04/M04 Q1007
2022/12/09 09:20 EEKE 090920Z 25002KT 9999 MIFG FEW030CB M07/M07 Q1008
2022/12/09 09:20 EEPU 090920Z AUTO 00000KT 0350 R21/0600U FZFG VV001 M07/M08 Q1008
2022/12/09 09:20 EETN 090920Z 00000KT 0300 R08/0500N FZFG VV001 M09/M10 Q1007 TEMPO 0800
2022/12/09 09:20 EETU 090920Z 27001KT 2400 -SN BR SCT006 BKN017 BKN043 M02/M03 Q1006
CD  STATION         ICAO  IATA  SYNOP   LAT     LONG   ELEV   M  N  V  U  A  C
   RIGA AIRPORT     EVRA               56 55N  023 58E   10   X     T          6 LV
   LIELVARDE        EVGA               56 47N  024 51E   61   X     T          7 LV
   LIEPAJA INTL     EVLA        26406  56 31N  021 06E    4   X                8 LV
   VENTPILS         EVVA               57 21N  021 33E    6   X                8 LV
   KAUNAS           EYKA               54 54N  023 55E   77   X     T          6 LT
   PALANGA INTL     EYPA               55 55N  021 03E   10   X                6 LT
   SIAULIAI INTL    EYSA               55 54N  023 24E  135   X     T          6 LT
   VILNIUS INTL     EYVI        26730  54 38N  025 17E  197   X     T          6 LT
   AMARI AIR BASE   EEEI               59 16N  024 12E   19   X     T          7 EE
   KARDLA           EEKA        26116  58 59N  022 50E    4   X                8 EE
   KURESSAARE       EEKE               58 14N  022 31E    4   X                8 EE
   PARNU            EEPU               58 25N  024 28E   14   X                8 EE
   TALLINN          EETN        26038  59 24N  024 49E   40   X     T          8 EE
   TARTU            EETU               58 19N  026 41E   67   X                8 EE

!   CD = 2 letter state (province) abbreviation
!   STATION = 16 character station long name
!   ICAO = 4-character international id
!   IATA = 3-character (FAA) id
!   SYNOP = 5-digit international synoptic number
!   LAT = Latitude (degrees minutes)
!   LON = Longitude (degree minutes)
!   ELEV = Station elevation (meters)
!   M = METAR reporting station.   Also Z=obsolete? site
!   N = NEXRAD (WSR-88D) Radar site
!   V = Aviation-specific flag (V=AIRMET/SIGMET end point, A=ARTCC T=TAF U=T+V)
!   U = Upper air (rawinsonde=X) or Wind Profiler (W) site
!   A = Auto (A=ASOS, W=AWOS, M=Meso, H=Human, G=Augmented) (H/G not yet impl.)
!   C = Office type F=WFO/R=RFC/C=NCEP Center
!   Digit that follows is a priority for plotting (0=highest)
!   Country code (2-char) is last column